Theta_e
327 326 326 327 326 327 328 328 328 327 327 328 328 328 327 327 325 326 326 326 326 325 325 325 325 325 325 325 325 325 324 324 324 323 324 323 322 323 323 321 320 321
325 327 327 326 324 324 326 328 327 327 326 326 327 326 326 325 324 326 325 326 326 326 325 325 325 325 325 325 325 325 325 325 324 325 323 323 322 322 323 322 321 319
324 323 324 324 324 324 324 325 325 325 324 324 324 324 325 325 324 324 325 326 326 326 325 325 324 324 324 324 325 325 325 325 325 324 323 323 322 322 323 322 320 320
324 323 323 323 323 323 323 323 322 323 321 321 322 324 326 326 324 324 324 328 325 325 324 323 323 323 324 324 324 324 324 326 327 324 323 321 321 322 322 322 320 320
323 323 322 323 324 324 323 323 323 322 322 322 323 323 325 325 324 324 324 325 325 324 323 323 323 323 324 324 324 322 323 326 326 324 323 321 320 321 321 322 320 320
324 324 323 324 323 323 324 324 323 322 323 322 323 324 324 325 325 324 324 324 324 323 322 322 323 322 323 323 322 322 323 324 325 325 323 321 320 320 322 321 321 320
322 323 322 322 323 323 323 323 324 323 323 324 323 323 324 324 324 325 325 324 324 323 322 322 322 321 322 321 321 322 323 324 324 324 322 319 322 321 322 321 321 320
321 322 322 322 322 322 322 322 323 322 322 322 322 323 323 324 323 324 324 324 323 322 322 322 322 321 320 320 320 321 322 324 323 323 321 319 321 322 322 323 320 320
321 321 322 321 321 321 322 322 323 323 323 321 322 321 321 323 322 323 324 324 323 322 321 320 321 321 320 320 320 321 322 323 323 322 320 320 320 321 323 322 319 319
321 321 321 321 321 321 321 321 322 322 322 321 321 320 320 320 321 322 323 323 323 322 320 319 319 320 319 320 320 320 321 321 321 320 319 319 320 320 321 321 320 319
321 321 320 321 321 321 321 321 321 322 322 321 320 319 319 319 319 321 322 322 322 322 321 320 320 320 320 319 319 320 320 320 320 320 319 319 319 320 322 320 320 320
321 320 319 320 320 321 321 321 321 321 321 321 320 319 317 318 319 319 321 321 321 321 321 320 320 320 321 320 320 319 319 319 320 320 319 319 319 319 321 320 320 320
320 320 320 319 320 320 320 321 321 320 321 320 320 319 317 316 316 317 318 319 319 319 319 318 318 319 319 319 319 319 319 319 318 318 318 318 318 319 320 320 321 321
319 319 319 319 319 320 320 321 321 320 320 320 319 317 315 315 316 316 314 314 313 313 309 310 311 312 313 316 318 319 318 318 318 318 318 317 317 317 319 320 321 320
318 320 319 319 319 320 320 320 320 320 320 319 317 315 314 314 315 313 311 309 307 306 305 305 307 307 307 312 316 317 317 317 318 318 317 317 316 316 316 317 317 316
316 317 318 319 319 319 319 320 319 319 318 318 316 314 313 313 311 310 310 308 306 303 302 302 301 301 302 301 307 316 316 318 317 317 317 316 315 315 312 311 311 310
311 316 317 318 319 319 318 318 318 317 317 316 313 312 312 311 310 308 306 306 305 303 300 299 298 298 296 295 297 303 314 314 315 315 315 315 315 315 311 308 308 308
308 313 317 316 316 317 317 317 316 315 314 313 312 311 310 308 307 305 303 302 301 300 298 297 297 296 292 295 296 300 306 312 312 313 313 313 314 312 309 308 307 307
306 310 315 316 316 317 317 316 314 313 311 311 310 309 306 305 303 302 300 299 299 298 296 296 295 295 292 295 297 300 302 308 310 310 311 310 310 309 308 306 305 304
304 305 306 308 315 316 316 313 312 311 309 307 306 305 302 300 299 298 297 297 297 296 295 296 295 295 292 296 298 298 301 305 310 310 309 309 309 307 305 304 303 304
303 303 304 305 305 311 313 312 311 307 305 304 302 301 299 297 296 295 296 296 295 295 296 295 295 292 293 298 297 299 301 304 309 306 302 300 298 298 298 298 298 299
302 302 303 303 303 304 307 309 307 305 302 301 299 298 298 296 295 295 294 294 294 295 294 294 294 292 295 298 297 299 301 306 303 300 298 297 296 296 296 295 295 295
301 302 302 302 302 302 301 302 302 301 301 300 298 297 297 296 294 294 294 294 294 294 293 293 294 293 293 295 296 297 300 302 300 299 297 297 296 296 296 296 295 294
300 301 301 301 301 301 301 301 301 301 300 300 297 296 295 295 295 295 295 296 295 294 294 294 294 293 292 293 294 295 299 300 299 297 296 295 294 294 295 296 299 300
299 300 301 301 301 301 301 300 300 300 300 299 298 297 296 296 296 296 296 296 296 296 298 295 293 294 292 292 292 293 298 299 298 296 294 293 293 293 293 293 293 295
299 299 299 300 300 300 301 300 300 299 298 298 297 297 296 296 296 296 295 295 296 296 296 296 294 293 293 292 293 293 295 301 299 297 295 294 294 294 293 293 293 293
Wind_Speed
4 5 7 7 7 6 6 6 6 6 6 5 6 6 7 7 4 6 5 5 5 5 4 5 4 4 4 4 5 4 4 5 5 5 6 6 6 7 7 6 5 6
4 3 5 6 5 5 5 5 6 7 6 6 5 6 7 4 4 6 6 6 5 5 4 4 5 5 5 5 5 5 5 5 6 4 6 7 6 7 7 7 6 4
7 6 7 8 8 7 6 5 5 5 6 5 5 5 6 4 5 5 6 6 6 6 5 5 4 4 4 4 5 5 5 5 6 5 6 7 5 6 6 6 5 6
4 5 3 1 3 6 5 5 4 4 3 4 6 6 5 4 4 5 5 7 6 6 5 5 5 4 4 5 5 5 5 5 5 5 5 4 5 6 6 6 5 5
5 2 2 4 4 5 6 5 5 4 5 5 4 4 5 5 5 5 6 6 6 5 5 5 4 4 5 6 6 6 5 5 5 6 6 6 4 5 5 6 6 6
6 6 9 7 5 6 6 6 4 3 4 4 6 5 5 6 6 6 6 7 6 5 5 5 5 5 6 6 6 6 5 5 5 6 6 6 5 4 5 5 6 6
6 7 4 3 4 5 4 4 4 3 3 5 4 6 5 5 6 6 6 6 5 5 5 6 7 6 6 6 5 5 5 5 5 6 6 5 5 5 4 5 5 5
6 4 5 3 3 4 5 4 4 4 3 3 6 6 7 7 7 6 6 5 4 5 5 5 6 6 6 6 6 5 6 4 5 6 5 5 5 6 5 5 5 5
4 4 5 6 6 5 5 4 3 3 3 1 5 6 7 8 8 7 7 6 5 5 4 4 5 6 6 6 6 7 7 6 6 6 6 6 6 6 6 5 5 5
5 5 6 7 8 7 7 6 4 3 5 1 6 5 7 6 6 7 6 7 7 5 4 4 4 5 6 6 7 7 7 8 7 6 6 6 7 6 6 6 6 5
6 6 7 8 7 7 8 8 7 6 7 6 3 7 5 5 5 6 7 7 8 7 5 5 5 6 6 6 5 6 7 7 7 7 7 7 7 7 8 7 7 7
3 4 6 7 6 7 8 8 8 6 7 8 7 9 5 5 6 6 7 8 7 6 6 6 6 6 7 7 6 5 5 6 6 7 7 7 7 6 7 6 7 7
1 2 4 5 5 7 8 8 9 8 8 10 8 6 6 5 5 7 6 6 6 5 6 6 6 6 6 5 5 6 6 6 6 6 5 5 5 6 6 7 7 7
1 1 2 4 3 4 6 7 8 8 8 7 7 7 7 6 7 7 5 4 4 4 3 4 5 5 5 5 5 6 6 5 6 6 6 5 4 4 5 6 6 5
5 1 3 2 3 4 5 6 7 7 7 7 7 6 5 5 5 5 5 4 3 3 3 2 4 5 5 6 7 6 6 7 6 6 6 6 5 4 3 3 3 3
8 5 1 5 4 5 6 5 6 5 5 6 6 5 4 5 5 4 6 7 6 4 3 2 2 1 1 4 6 7 7 6 6 6 6 6 6 5 3 3 2 2
8 7 4 4 6 5 3 4 4 5 6 5 6 5 5 4 5 5 4 5 7 7 5 2 1 0 3 2 5 8 7 6 7 7 6 5 5 6 5 5 3 4
8 8 5 2 2 2 3 3 4 4 4 4 6 7 5 4 4 4 4 4 5 5 5 3 1 4 5 4 4 7 8 6 5 6 6 5 6 6 6 5 5 5
8 7 7 4 3 3 5 5 4 4 3 2 5 6 6 5 4 4 3 2 4 6 4 3 2 6 6 4 2 5 7 6 3 4 5 6 6 7 6 6 6 6
11 10 9 10 4 5 3 4 4 5 6 5 4 6 7 6 5 5 4 3 3 3 4 4 4 8 8 4 3 9 12 10 6 6 6 6 6 6 6 6 5 6
11 10 12 10 9 6 2 4 3 6 7 6 7 7 6 5 5 5 4 4 4 3 4 6 6 11 8 3 7 13 16 12 8 8 8 8 7 6 6 6 5 6
10 10 10 11 10 8 5 1 7 5 8 8 8 8 8 7 7 6 6 6 5 5 6 7 7 14 11 7 7 14 15 10 8 9 9 8 8 7 6 6 6 6
11 9 10 11 10 10 10 10 6 6 5 4 11 9 9 9 8 7 6 6 6 6 7 7 8 12 13 12 9 9 13 8 9 9 9 9 8 6 6 7 6 5
11 9 10 12 12 11 11 10 10 8 6 4 8 12 12 10 9 7 7 8 8 8 6 8 8 12 15 13 12 13 5 10 8 10 8 9 8 7 7 7 8 12
10 10 9 10 13 12 11 11 10 8 7 6 7 12 12 11 11 9 8 9 9 8 11 10 9 11 15 15 15 12 8 4 8 10 10 7 8 8 7 7 7 9
11 11 11 9 10 12 12 12 10 9 9 8 7 7 12 12 11 10 10 9 9 9 9 9 10 10 13 18 16 15 12 6 4 7 11 8 6 7 8 6 6 6
Wind_Direction
199 198 190 200 197 207 197 190 188 187 185 183 189 198 205 215 174 170 175 187 208 203 189 189 200 199 180 177 184 186 192 192 183 177 180 174 180 174 181 182 176 180
279 241 219 189 183 199 208 200 191 191 186 185 193 201 221 199 183 175 169 187 201 205 185 185 195 190 178 178 180 185 182 179 183 175 174 179 183 181 188 183 179 167
203 223 214 188 182 182 192 196 194 195 186 182 183 207 218 194 193 186 177 186 195 201 188 183 183 184 174 172 173 181 183 177 179 176 175 186 173 183 192 179 173 172
216 226 260 277 176 170 173 182 194 186 166 162 193 210 218 202 198 195 195 195 190 197 184 173 182 175 167 168 173 183 186 185 177 167 175 175 181 178 182 178 172 171
189 171 193 213 167 158 153 176 196 185 180 187 188 209 221 213 203 204 204 201 190 189 172 173 169 168 165 173 180 180 183 177 169 169 172 180 183 176 176 170 174 176
169 179 200 209 174 151 153 163 184 195 188 178 197 195 218 216 215 207 205 201 188 177 167 163 167 167 172 174 179 183 175 175 173 171 172 176 175 178 166 175 171 174
181 195 176 186 173 160 146 166 160 171 203 201 173 199 193 211 216 216 211 203 180 174 172 172 169 169 172 169 174 174 177 175 167 174 171 169 164 171 172 169 173 172
221 190 160 179 165 139 152 171 170 166 182 211 196 199 178 196 202 206 210 209 192 180 175 170 167 164 163 164 169 169 171 175 169 172 169 164 169 173 173 172 167 170
212 198 178 171 161 149 154 171 183 149 97 262 245 200 192 188 186 189 199 206 201 189 171 170 168 167 168 168 175 174 172 176 179 176 172 171 176 179 176 165 167 179
218 214 188 180 177 170 157 155 150 154 109 53 282 263 197 195 176 179 189 198 202 194 168 168 171 175 173 179 179 178 177 177 179 180 176 177 178 175 175 176 181 180
211 210 211 191 188 171 160 154 158 163 137 150 245 260 227 173 186 178 183 194 199 195 177 172 183 183 184 185 187 189 182 176 179 179 181 179 180 180 182 183 181 191
206 229 230 210 183 166 155 156 156 155 156 164 176 236 220 184 176 186 185 192 198 192 184 178 180 188 193 192 184 184 189 185 179 181 183 181 181 180 182 185 187 193
200 226 248 239 201 171 161 161 160 160 170 176 174 215 210 182 194 185 193 189 191 189 186 175 180 187 195 193 183 180 187 185 179 182 181 183 186 183 184 187 193 194
140 145 230 245 241 191 178 169 163 169 182 180 161 197 209 186 189 190 181 168 166 167 154 152 161 175 187 192 186 182 177 185 185 176 174 182 185 187 188 191 192 184
322 94 150 200 230 203 183 179 177 180 181 173 164 188 192 186 175 163 145 128 107 117 122 124 148 168 178 182 186 189 176 180 184 180 175 177 178 181 184 184 176 166
331 325 240 173 210 210 198 186 176 180 189 175 168 168 165 154 156 159 157 156 143 119 105 111 116 135 185 218 210 187 181 183 180 181 180 175 165 143 112 92 91 84
332 315 274 222 199 205 207 184 177 182 193 181 147 149 151 156 151 148 154 154 149 144 131 109 52 335 334 262 242 221 187 182 183 182 178 167 151 142 137 117 84 78
331 312 281 267 290 227 194 194 185 183 198 176 149 142 135 131 140 137 140 137 125 121 116 108 66 353 348 325 271 227 194 178 170 167 162 139 133 129 126 119 107 88
329 323 310 261 199 190 183 178 172 165 141 172 159 134 119 118 114 110 104 98 124 125 104 67 45 355 348 343 261 207 150 120 104 119 116 120 122 124 123 122 118 103
351 346 348 346 304 225 190 129 152 148 109 82 78 87 99 98 88 80 56 53 52 76 88 51 36 341 336 340 161 129 99 92 90 83 79 80 87 96 103 108 114 121
359 3 360 355 352 334 247 142 126 102 92 91 85 81 80 79 83 74 60 51 43 39 62 48 14 351 350 58 129 108 98 96 90 85 80 71 65 65 75 82 85 90
357 10 9 8 7 9 0 112 119 117 120 112 89 69 69 75 55 54 52 48 38 43 61 45 16 10 26 48 115 106 101 98 94 94 92 87 75 70 69 65 67 78
355 7 28 20 18 26 31 21 23 86 91 100 103 88 75 59 55 52 48 53 50 48 62 56 37 19 31 35 16 93 101 99 102 96 94 89 81 75 71 70 67 66
359 5 29 38 31 32 34 38 35 11 35 57 95 103 83 66 52 37 44 57 55 50 52 68 53 32 38 34 40 11 51 114 108 103 92 91 88 68 66 63 58 66
3 8 18 43 52 39 35 41 37 32 17 35 86 94 88 84 70 50 32 39 47 51 50 60 58 42 39 45 36 34 34 68 108 110 102 98 99 87 71 71 60 50
12 12 15 22 48 64 56 44 38 41 28 28 19 71 95 90 83 73 55 34 32 37 47 44 58 51 49 50 46 41 39 53 30 102 118 114 99 102 95 74 63 60